Regional Weather Roundup
Issued by NWS Sioux Falls, SD

Home | Current Version | Previous Version | Graphics & Text | Print | Product List | Glossary On
Versions: 1 2 3 4 5 6 7 8 9 10 11 12 13 14 15 16 17 18 19 20 21 22 23 24 25 26 27 28 29 30 31 32 33 34 35 36 37 38 39 40 41 42 43 44 45 46 47 48 49 50
000
ASUS43 KFSD 281602
RWRFSD

WEATHER ROUNDUP FOR SE SOUTH DAKOTA/SW MINNESOTA/NW IOWA
NATIONAL WEATHER SERVICE SIOUX FALLS SD
1100 AM CDT SUN AUG 28 2016

NOTE: "FAIR" INDICATES FEW OR NO CLOUDS BELOW 12,000 FEET WITH NO
SIGNIFICANT WEATHER AND OR OBSTRUCTIONS TO VISIBILITY.


SDZ038>040-050-052>070-281700-
SOUTHEAST SOUTH DAKOTA

CITY           SKY/WX    TMP DP  RH WIND       PRES   REMARKS
BROOKINGS      SUNNY     76  69  79 SE12      30.07S
CHAMBERLAIN    SUNNY     83  70  63 S13       29.98S
HURON          SUNNY     79  68  69 S17       29.98S
MADISON        FAIR      75  75 100 S13G18    30.07S
MITCHELL       SUNNY     80  69  69 S15       30.01S
SIOUX FALLS    MOSUNNY   79  72  79 S13       30.08R
WINNER         FAIR      84  67  56 S15       29.99S
YANKTON        SUNNY     81  70  69 SE14      30.03S
$$

MNZ071-072-080-081-089-090-097-098-281700-
SOUTHWEST MINNESOTA

CITY           SKY/WX    TMP DP  RH WIND       PRES   REMARKS
FAIRMONT       SUNNY     76  70  82 S7        30.16R
JACKSON          N/A     79  68  69 SE5       30.15S
LUVERNE        SUNNY     77  68  73 S9        30.11S
MARSHALL       PTSUNNY   72  67  84 SE15      30.12R
MONTEVIDEO     CLOUDY    73  72  94 S9        30.11S
REDWOOD FALLS  SUNNY     74  67  78 SE8       30.13S
TRACY          PTSUNNY   72  68  86 SE8       30.14R
WINDOM         MOSUNNY   79  70  73 SE7       30.15R
WORTHINGTON    SUNNY     77  71  82 SE9       30.14R
$$

IAZ001>003-012>014-020>022-031-032-NEZ013-014-SDZ071-281700-
NORTHWEST IOWA

CITY           SKY/WX    TMP DP  RH WIND       PRES   REMARKS
CHEROKEE       SUNNY     79  73  81 S8        30.11S
DENISON        HAZE      81  73  78 S8        30.11R VSB<1/4
ESTHERVILLE    SUNNY     75  71  87 SE10      30.14S
LE MARS        SUNNY     81  72  74 S12       30.10R
ORANGE CITY    SUNNY     79  72  78 S9        30.11S
SHELDON        MOSUNNY   79  73  83 S10       30.10S
SIOUX CITY     SUNNY     80  72  76 SE9       30.08S
SPENCER        SUNNY     78  69  73 S9        30.13S
STORM LAKE     SUNNY     77  72  83 SE9       30.14R
$$

ABBREVIATIONS USED IN REMARKS
   TC - TEMPERATURE IN CELSIUS
  WCI - WIND CHILL INDEX
   HX - HEAT INDEX
  VSB - VISIBILITY





USA.gov is the U.S. government's official web portal to all federal, state and local government web resources and services.